Powrót do katalogu

FENGYUN 1C DEB

AktywnyPO
NORAD 31888·DEBRIS·🇨🇳 China

Wystrzelony May 10, 1999 z Taiyuan Satellite Launch Center

Loading…

Następne Przeloty (najbliższe 24 godziny)

TLE

ŚwieżeSource: Space-Track

Epoka: Sep 13, 2026, 02:19 UTC

1 31888U 99025CKP 26256.09707266  .00003250  00000-0  11207-2 0  9994
2 31888  99.1623 204.2340 0018583 129.6850 230.5976 14.36545939995735

Śledź FENGYUN 1C DEB w czasie rzeczywistym z AllMySat

Download on the App Store